Zurück zum Katalog

DELTA 1 DEB

AktivSSO
NORAD 42078·DEBRIS·🇺🇸 United States

Gestartet Dec 15, 1968 von Vandenberg Space Force Base

Loading…

Nächste Überflüge (nächste 24 Stunden)

TLE

AktuellSource: Space-Track

Epoche: Sep 13, 2026, 02:22 UTC

1 42078U 68114E   26256.09907658 -.00000005  00000-0  24916-3 0  9997
2 42078 101.5204 212.5724 0029099  95.9878 264.4511 12.50061929234191

Verfolge DELTA 1 DEB in Echtzeit mit AllMySat

Download on the App Store